FLOCK 4BE-18

Last updated on Mon Sep 16 2024 00:02:03 GMT+0000 (Coordinated Universal Time)

1 60480U 24149N 24258.90668389 .00018738 00000+0 91668-3 0 9997 2 60480 97.4392 333.9911 0005866 14.6154 345.5248 15.18236220 4419
UTC large
Height (km)
Speed (km/s)
/
Latitude / Longitude
Inclination (degrees)
Orbital Period (minutes)
Azimuth
Elevation
Range (km)
Doppler Factor

Next 0 passes for location: London (51.5072 / 0.1276)

Sorry there are no passes over London.